Regional Weather Roundup
Issued by NWS

Home | Current Version | Previous Version | Graphics & Text | Print | Product List | Glossary On
Versions: 1 2 3 4 5 6 7 8 9 10 11 12 13 14 15 16 17 18 19 20 21 22 23 24 25 26 27 28 29 30 31 32 33 34 35 36 37 38 39 40 41 42 43 44 45 46 47 48 49 50
000
ASUS43 KTOP 220559
RWRKS

WEATHER ROUNDUP FOR KANSAS
NATIONAL WEATHER SERVICE GOODLAND KS
100 AM CDT FRI AUG 22 2014

NOTE:  "FAIR" INDICATES FEW OR NO CLOUDS BELOW 12,000 FEET WITH NO
SIGNIFICANT WEATHER AND/OR OBSTRUCTIONS TO VISIBILITY.

KSZ001>006-013>018-027>032-041>047-220700-
NORTHWEST KANSAS

CITY           SKY/WX    TMP DP  RH WIND       PRES   REMARKS
GOODLAND       PTCLDY    66  53  63 NE6       30.02R
6HR MIN TEMP:  66; 6HR MAX TEMP:  92;

HAYS           FAIR      81  64  57 SE9       29.90R
HILL CITY      FAIR      77  67  71 NE6       29.91R
6HR MIN TEMP:  75; 6HR MAX TEMP:  97;

RUSSELL        FAIR      82  66  58 SE8       29.90R
6HR MIN TEMP:  80; 6HR MAX TEMP:  95;

$$

KSZ061>065-074>080-084>089-220700-
SOUTHWEST KANSAS

CITY           SKY/WX    TMP DP  RH WIND       PRES   REMARKS
DODGE CITY     FAIR      78  63  59 S6        29.94R
6HR MIN TEMP:  78; 6HR MAX TEMP:  94;

ELKHART          N/A     75  58  55 S8          N/A
GARDEN CITY    FAIR      76  61  59 CALM      29.95S
6HR MIN TEMP:  76; 6HR MAX TEMP:  95;

GREAT BEND     FAIR      82  64  54 S12       29.91R
LIBERAL        FAIR      79  61  53 CALM      29.97S
$$

KSZ066>073-081>083-090>101-220700-
SOUTHEAST KANSAS

CITY           SKY/WX    TMP DP  RH WIND       PRES   REMARKS
CHANUTE        FAIR      81  71  71 S12       29.95R
6HR MIN TEMP:  81; 6HR MAX TEMP:  92;

COFFEYVILLE    FAIR      83  72  69 S15       29.95R
6HR MIN TEMP:  82; 6HR MAX TEMP:  91;

HUTCHINSON     FAIR      84  70  62 S14       29.92R
6HR MIN TEMP:  84; 6HR MAX TEMP:  97;

NEWTON         FAIR      82  66  57 S17G23    29.97S
PARSONS        FAIR      81  71  71 S8        29.97R
6HR MIN TEMP:  81; 6HR MAX TEMP:  91;

WICHITA INTL   FAIR      83  70  64 S17       29.93R
6HR MIN TEMP:  83; 6HR MAX TEMP:  94;

WICHITA JABRA  FAIR      83  70  64 S15G25    29.93R
6HR MIN TEMP:  82; 6HR MAX TEMP:  93;

WINFIELD       FAIR      81  71  71 S12       29.95R
6HR MIN TEMP:  81; 6HR MAX TEMP:  93;

$$

KSZ007>012-019>026-033>040-048>060-102>105-220700-
NORTHEAST KANSAS

CITY           SKY/WX    TMP DP  RH WIND       PRES   REMARKS
CONCORDIA      FAIR      76  70  82 S10       29.88F
6HR MIN TEMP:  70; 6HR MAX TEMP:  91; 6HR PCP:  1.36;

EMPORIA        FAIR      81  72  74 S16       29.92F
6HR MIN TEMP:  81; 6HR MAX TEMP:  92;

LAWRENCE       FAIR      85  72  65 S10G18    29.91S
6HR MIN TEMP:  84; 6HR MAX TEMP:  95;

MANHATTAN      FAIR      79  68  69 SW5       29.91F
6HR MIN TEMP:  79; 6HR MAX TEMP:  97;

OLATHE IND     FAIR      81  71  71 S12       29.94S
6HR MIN TEMP:  81; 6HR MAX TEMP:  92;

OLATHE EXE     FAIR      80  71  74 S9        29.94R
6HR MIN TEMP:  80; 6HR MAX TEMP:  90;

SALINA         FAIR      84  69  60 CALM      29.91F
6HR MIN TEMP:  81; 6HR MAX TEMP:  97;

TOPEKA BILLARD FAIR      85  73  67 S12G20    29.89F
6HR MIN TEMP:  85; 6HR MAX TEMP:  97;

TOPEKA FORBES  FAIR      83  72  69 S14       29.90F
6HR MIN TEMP:  83; 6HR MAX TEMP:  95;

$$



USA.gov is the U.S. government's official web portal to all federal, state and local government web resources and services.